Regional Weather Roundup
Issued by NWS San Diego, CA

Home | Current Version | Previous Version | Text Only | Print | Product List | Glossary On
Versions: 1 2 3 4 5 6 7 8 9 10 11 12 13 14 15 16 17 18 19 20 21 22 23 24 25 26 27 28 29 30 31 32 33 34 35 36 37 38 39 40 41 42 43 44 45 46 47 48 49 50
000
ASUS46 KSGX 201811
RWRSGX
SAN DIEGO HOURLY WEATHER ROUNDUP
NATIONAL WEATHER SERVICE SAN DIEGO CA
1100 AM PDT WED SEP 20 2017

NOTE: "FAIR" INDICATES FEW OR NO CLOUDS BELOW 12,000 FEET WITH NO
SIGNIFICANT WEATHER AND/OR OBSTRUCTIONS TO VISIBILITY.

CAZ042-043-060-061-PZZ750-775-201900-

GREATER SAN DIEGO AREA

CITY           SKY/WX    TMP DP  RH WIND       PRES   REMARKS
SAN DIEGO AP   CLOUDY    69  58  67 S12       29.95S
NATIONAL CITY    N/A     72  61  67 SW12      29.95F
CHULA VISTA      N/A     73  62  68 SW8       29.85F
IMPERIAL BEACH PTSUNNY   72  57  59 SW12      29.94S
BROWN FIELD    PTSUNNY   72  57  59 SW12      29.94S
MIRAMAR MCAS   CLOUDY    74  60  61 S10       29.94S
MONTGOMERY FLD CLOUDY    71  57  61 S8        29.94S
GILLESPIE FLD  PTSUNNY   72  55  56 VRB6      29.94

$$

NORTH SAN DIEGO COUNTY

CITY           SKY/WX    TMP DP  RH WIND       PRES   REMARKS
CAMP PENDLETON DRIZZLE   72  60  66 CALM      29.93R
OCEANSIDE AP   CLOUDY    71  62  73 S12G17    29.92S
OCEANSIDE HBR    N/A     67  63  86 SW7       29.95S
VISTA            N/A     71  61  71 SE2       29.90S
CARLSBAD       CLOUDY    70  60  70 S10       29.92S
DEL MAR          N/A     68  61  77 SW2       29.95R
LA JOLLA SCRIP   N/A     69  61  76 E9        29.92S
FALLBROOK        N/A     70  63  77 S2        29.94S
ESCONDIDO        N/A     70  59  68 CALM      29.94S
SAN MARCOS       N/A     69  60  73 S2        29.94S
POWAY            N/A     71  58  64 CALM      29.94S

$$

EAST SAN DIEGO COUNTY

CITY           SKY/WX    TMP DP  RH WIND       PRES   REMARKS
RAMONA         CLOUDY    71  56  58 CALM      29.94F
LA MESA          N/A     69  59  71 CALM      29.87S
JAMUL            N/A     71  60  67 CALM      29.92F
DESCANSO N       N/A     66  51  57 W7        29.86S
CAMPO            N/A     67  51  56 SW6       29.93S

$$

ORANGE COUNTY AND THE LOS ANGELES BASIN

CITY           SKY/WX    TMP DP  RH WIND       PRES   REMARKS
JOHN WAYNE AP  PTSUNNY   72  62  71 SW10      29.91F
LAGUNA BEACH     N/A     73  67  81 S6        29.87S
LAKE FOREST FR   N/A     71  54  54 CALM      29.81S
HUNTINGTON BCH   N/A     74  66  76 SW6       29.93S
LOS ALAMITOS   MOSUNNY   76  62  63 S8        29.91S
FULLERTON      PTSUNNY   74  60  61 VRB3      29.90F
LONG BEACH     PTSUNNY   74  61  63 S9        29.91S
L.A. AP        PTSUNNY   76  60  57 SE6       29.91S
L.A. DOWNTOWN  PTSUNNY   76  58  53 VRB5      29.90F

$$

THE INLAND EMPIRE

CITY           SKY/WX    TMP DP  RH WIND       PRES   REMARKS
CORONA         CLOUDY    72  59  63 VRB3      29.93S
CHINO          CLOUDY    72  58  61 CALM      29.94S
ONTARIO        CLOUDY    68  56  65 W6        29.94S
SAN BERNARDINO CLOUDY    68  55  64 CALM      29.94S HAZE
RIVERSIDE AP   CLOUDY    69  59  70 W5        29.93S
MORENO VALLEY    N/A     71  60  67 SE3       28.06S
MARCH ARB      CLOUDY    71  53  53 E9        29.94S
HORSETHIEF CYN   N/A     69  52  54 SE2       29.92S
PERRIS           N/A     67  57  71 SW5         N/A
HEMET EAST       N/A     66  51  59 SW6       29.97R
FRENCH VALLEY  CLOUDY    68  55  64 SW8       29.95S
TEMECULA         N/A     71  59  64 W8        29.97S

$$

SAN BERNARDINO AND RIVERSIDE COUNTY MOUNTAINS

CITY           SKY/WX    TMP DP  RH WIND       PRES   REMARKS
BIG BEAR AP    SUNNY     70  25  18 W8        30.07F
ANGELUS OAKS     N/A     57  48  70 CALM      29.77R
PINE COVE        N/A     65  45  47 CALM      29.81R

$$

SOUTHERN DESERT INCLUDING THE COACHELLA VALLEY

CITY           SKY/WX    TMP DP  RH WIND       PRES   REMARKS
PALM SPRINGS   SUNNY     85  52  32 NW12      29.81S
THOUSAND PALMS   N/A     82  55  38 NW13      29.77S
PALM DESERT      N/A     85  55  35 CALM        N/A
THERMAL        SUNNY     86  53  32 NW8       29.75F
BLYTHE         SUNNY     88  44  21 S8        29.79F
IMPERIAL AP    SUNNY     87  49  26 W5        29.77F
EL CENTRO NAS  SUNNY     87  45  23 N6        29.79S
YUMA AZ        SUNNY     89  61  38 S6        29.78S
MEXICALI       SUNNY     88  41  19 NE6       29.78F

$$

UPPER DESERT

CITY           SKY/WX    TMP DP  RH WIND       PRES   REMARKS
VICTORVILLE AP SUNNY     73  28  19 CALM      29.91F
HESPERIA         N/A     74  53  47 W12       29.94F
PALMDALE       SUNNY     76  37  24 W13       29.90F
LANCASTER      SUNNY     79  27  14 W26       29.88F
EDWARDS AFB    SUNNY     77  26  15 W26G32    29.84F
DAGGETT        SUNNY     80  35  19 W18       29.84F
29 PALMS N     SUNNY     80  33  18 VRB3      29.91F
NEEDLES        SUNNY     91  39  16 S15G23    29.79F

$$

REGIONAL REPORTS

CITY           SKY/WX    TMP DP  RH WIND       PRES   REMARKS
SANTA BARBARA  PTSUNNY   71  60  68 SE10      29.92R
SANDBERG       SUNNY     64  33  31 N22G31    30.01S
LAS VEGAS NV   SUNNY     82  41  23 CALM      29.80F
PHOENIX AZ     MOSUNNY   90  57  32 SE13G24   29.85S
TIJUANA        PTSUNNY   73  54  49 S7        29.96F
ENSENADA NW      N/A     71  32  23 W2        29.93S

$$

OFFSHORE ISLANDS

CITY           SKY/WX    TMP DP  RH WIND       PRES   REMARKS
CATALINA ARPT  CLOUDY    67  61  81 NW3       29.95S
SAN CLEMENTE I PTSUNNY   68  60  75 SE6       29.93S
SAN NICOLAS IS MOSUNNY   70  59  68 SE6       29.91S

$$

MARINE AND OFFSHORE BUOY REPORTS

STATION/POSITION SKY/WX   TEMP    WIND        PRES    VSBY  SWELL
                          AIR SEA DIR/SP/G                  HT/PER/DIR
                          (F)     (DEG/KT/KT) (MB)    (MI)  (FT/S/D)
TANNER BANKS               65 67  300/ 14/ 16 1012.7R         8/330/ 9
S CLEMENTE BASIN           67 71  190/ 10/ 12 1013.1F         5/280/ 9
SAN NICOLAS IS.               65                N/A           7/320/14
SO. S. ROSA ISLA           63 65  330/  8/ 10 1012.7R         8/310/14
W. S. BARBARA CH           62 63  330/ 10/ 14 1012.9R
M. S. BARBARA CH           66      80/  6/  8 1013.8R         3/260/ 7
S. MONICA BASIN                    70/  4/  6 1012.7R         2/220/11
S PEDRO CHANNEL               69                N/A           2/170/11
CMP PENDLETON NS              69                N/A           2/210/12
OCEANSIDE OFFSHR              70                N/A           2/190/12
TORREY PINES OTR              70                N/A           2/220/11
SAN DIEGO BAY                 72              1014.1F
POINT LOMA SOUTH              72                N/A           2/220/11

$$





USA.gov is the U.S. government's official web portal to all federal, state and local government web resources and services.